Location: Goudex
(43.3760°N, 0.9543°E)
Time: 21:56:50
(UTC+00:00)

Cosmos 1725 Rocket - Pass Details

Date: 20 November 2019
Orbit: 962 x 990 km, 82.9° (Epoch: 14 December)

Event Time Altitude Azimuth Distance (km) Brightness Sun altitude
Rises 05:33:19 0° 197° (SSW) 3,664 7.0 -14.8°
Reaches altitude 10° 05:35:51 10° 201° (SSW) 2,725 6.3 -14.4°
Maximum altitude 05:42:02 61° 281° (W) 1,115 4.0 -13.3°
Drops below altitude 10° 05:48:17 10° 1° (N) 2,758 6.2 -12.2°
Sets 05:50:52 0° 5° (N) 3,712 6.9 -11.7°
